• MPC Preparation (Info)

  • MPEC 2012-V13 : 2012 VD5

    The following Minor Planet Electronic Circular may be linked-to from your own Web pages, but must not otherwise be redistributed electronically.

    A form allowing access to any MPEC is at the bottom of this page.


    Read MPEC 2012-V12 Read MPEC 2012-V14


    M.P.E.C. 2012-V13                                Issued 2012 Nov. 5, 20:43 UT
    
         The Minor Planet Electronic Circulars contain information on unusual
             minor planets and routine data on comets.  They are published
       on behalf of Commission 20 of the International Astronomical Union by the
              Minor Planet Center, Smithsonian Astrophysical Observatory,
                              Cambridge, MA 02138, U.S.A.
    
                 Prepared using the Tamkin Foundation Computer Network
    
                                  MPC@CFA.HARVARD.EDU
                URL https://www.minorplanetcenter.net/    ISSN 1523-6714
    
                                       2012 VD5
    
    Observations:
         K12V05D* C2012 11 04.25599 00 17 47.58 +05 23 55.3          18.4 VrEV013703
         K12V05D  C2012 11 04.26676 00 17 28.96 +05 25 30.0          19.1 VrEV013703
         K12V05D  C2012 11 04.27769 00 17 09.88 +05 27 07.4          18.4 VrEV013703
         K12V05D  C2012 11 04.28861 00 16 50.95 +05 28 43.8          18.7 VrEV013703
         K12V05D KC2012 11 04.33567 00 15 28.13 +05 35 55.9          19.0 RoEV013291
         K12V05D KC2012 11 04.33697 00 15 25.81 +05 36 07.7          19.1 RoEV013291
         K12V05D KC2012 11 04.33827 00 15 23.49 +05 36 19.8          18.0 RoEV013291
         K12V05D KC2012 11 05.05330123 47 58.18 +08 15 55.5          17.6 VrEV013H21
         K12V05D KC2012 11 05.05610123 47 47.81 +08 16 49.6          17.8 VrEV013H21
         K12V05D KC2012 11 05.05886423 47 37.54 +08 17 43.1          17.7 VrEV013H21
         K12V05D KC2012 11 05.06161123 47 27.30 +08 18 36.3          17.8 VrEV013H21
         K12V05D  C2012 11 05.06542 23 47 30.86 +08 21 15.5          18.1 RoEV013G48
         K12V05D  C2012 11 05.06697 23 47 25.09 +08 21 46.6          17.7 RoEV013G48
         K12V05D  C2012 11 05.06777 23 47 22.10 +08 22 02.0          17.6 RoEV013G48
         K12V05D  C2012 11 05.06892 23 47 17.80 +08 22 25.0          18.0 RoEV013G48
         K12V05D  C2012 11 05.12309 23 43 47.53 +08 38 42.5          18.3  rEV013718
         K12V05D  C2012 11 05.12366 23 43 45.18 +08 38 54.4          17.7  rEV013718
         K12V05D  C2012 11 05.12422 23 43 42.97 +08 39 06.7          18.2  rEV013718
         K12V05D  C2012 11 05.12479 23 43 40.76 +08 39 17.8          18.0  rEV013718
         K12V05D KC2012 11 05.70876 22 46 41.29 +13 27 22.6          17.3 VuEV013C43
         K12V05D KC2012 11 05.70989 22 46 31.13 +13 28 09.2          17.4 VuEV013C43
         K12V05D KC2012 11 05.71107 22 46 19.81 +13 28 59.7          17.1 VuEV013C43
         K12V05D KC2012 11 05.71890 22 45 06.19 +13 34 31.9          17.2 VuEV013C43
         K12V05D KC2012 11 05.72080 22 44 47.65 +13 35 54.2          17.7 VuEV013C43
         K12V05D KC2012 11 05.72161 22 44 39.87 +13 36 29.3          17.5 VuEV013C43
         K12V05D KC2012 11 05.74742 22 40 33.78 +13 57 00.8                tEV013204
         K12V05D KC2012 11 05.74949 22 40 12.75 +13 58 32.9          17.2 RtEV013204
         K12V05D KC2012 11 05.75146 22 39 52.73 +13 59 59.7                tEV013204
         K12V05D KC2012 11 05.75359822 39 39.63 +13 59 24.0                uEV013J95
         K12V05D KC2012 11 05.75496 22 39 16.78 +14 02 40.9          17.1 RcEV013A24
         K12V05D KC2012 11 05.75529722 39 22.40 +14 00 39.5                uEV013J95
         K12V05D KC2012 11 05.75595 22 39 06.66 +14 03 25.9          17.1 RcEV013A24
         K12V05D KC2012 11 05.75620 22 39 04.01 +14 03 36.5          16.9 RcEV013A24
         K12V05D KC2012 11 05.75637 22 39 02.26 +14 03 44.2          17.2 RcEV013A24
         K12V05D KC2012 11 05.75687322 39 06.33 +14 01 49.8          16.9 RuEV013J95
         K12V05D KC2012 11 05.75700 22 38 55.76 +14 04 12.5          16.6 RcEV013A24
         K12V05D KC2012 11 05.75741 22 38 51.59 +14 04 30.4          16.8 RcEV013A24
         K12V05D KC2012 11 05.75789 22 38 46.55 +14 04 52.3          16.9 RcEV013A24
         K12V05D KC2012 11 05.82432822 26 53.32 +14 53 31.1                uEV013J95
         K12V05D KC2012 11 05.82590522 26 35.11 +14 54 45.3                uEV013J95
         K12V05D KC2012 11 05.82753222 26 16.27 +14 56 02.0          16.9 RuEV013J95
    
    Observer details:
    204 Schiaparelli Observatory.  Observer L. Buzzi.  0.38-m f/6.8 reflector
        + CCD.
    291 LPL/Spacewatch II.  Observer T. H. Bressi.  1.8-m f/2.7 reflector + CCD.
    703 Catalina Sky Survey.  Observer R. A. Kowalski.  Measurers A. Boattini,
        E. J. Christensen, A. R. Gibbs, A. D. Grauer, R. E. Hill, J. A. Johnson,
        R. A. Kowalski, S. M. Larson, R. H. McNaught.  0.68-m Schmidt + CCD.
    718 Wiggins Observatory, Tooele.  Observer P. Wiggins.  0.35-m f/5.5
        Schmidt-Cassegrain + CCD.
    A24 New Millennium Observatory, Mozzate.  Observer E. Cozzi.  0.36-m f/11
        Schmidt-Cassegrain + CCD.
    C43 Hoyerswerda.  Observer P. Lindner.  0.30-m f/6.3 Schmidt-Cassegrain + CCD.
    G48 Doc Greiner Research Obs., Rancho Hildalgo.  Observer M. Mills.  0.40-m
        f/10 Schmidt-Cassegrain + CCD.
    H21 Astronomical Research Observatory, Westfield.  Observer R. Holmes.
        Measurers L. Buzzi, H. Devore, S. Foglia, T. Vorobjov.  0.61-m f/4.0
        astrograph + CCD.
    J95 Great Shefford.  Observer P. Birtwhistle.  0.40-m f/6.0 Schmidt-Cassegrain
        + CCD.
    
    Orbital elements:
    2012 VD5                                                 Earth MOID = 0.0026 AU
    Epoch 2012 Sept. 30.0 TT = JDT 2456200.5                MPC
    M 335.01119              (2000.0)            P               Q
    n   0.34833915     Peri.   51.00694     -0.02573249     -0.99925625
    a   2.0004814      Node    40.49589     +0.90296348     -0.03556067
    e   0.5626246      Incl.    2.53470     +0.42894614     +0.01491245
    P   2.83           H   26.3           G   0.15           U   6
    Residuals in seconds of arc
    121104 703 (6.2+  2.5-)   121105 G48  0.3+  0.6+    121105 J95  0.1-  0.0
    121104 703 (4.9+  2.1-)   121105 718  0.6+  0.4-    121105 A24  1.2-  1.2+
    121104 703  2.3+  1.1-    121105 718  0.2-  0.4-    121105 J95  0.2+  0.2-
    121104 703 (3.3+  1.6-)   121105 718  0.5+  0.3+    121105 A24  0.6-  2.1+
    121104 291  0.5-  0.1-    121105 718  1.8+  0.5-    121105 A24  1.8-  1.6+
    121104 291  0.7-  0.2-    121105 C43 (6.5-  1.3+)   121105 A24  1.9-  1.7+
    121104 291  0.8-  0.1-    121105 C43  0.1+  0.0     121105 J95  0.0   0.3-
    121105 H21  0.0   0.3+    121105 C43 (3.1-  0.4+)   121105 A24 (2.2-  1.9+)
    121105 H21  0.1-  0.4+    121105 C43 (6.9+  1.3-)   121105 A24  1.4-  1.5+
    121105 H21  0.1-  0.4+    121105 C43  1.8+  0.4-    121105 A24 (2.8-  2.0+)
    121105 H21  0.1+  0.3+    121105 C43  1.8+  0.0     121105 J95  0.0   0.1+
    121105 G48  0.4+  0.5+    121105 204  0.3+  0.3+    121105 J95  0.3+  0.1-
    121105 G48  0.4+  0.9+    121105 204  0.7-  0.7+    121105 J95  0.7+  0.3-
    121105 G48  0.4+  0.5+    121105 204  0.7-  0.1+
    
    Ephemeris:
    2012 VD5                 a,e,i = 2.00, 0.56, 3                   q = 0.8750
    Date    TT    R. A. (2000) Decl.     Delta      r     Elong.  Phase     V
    2012 10 06    01 15 18.5 +01 13 19   0.2227  1.2207   172.1     6.5    24.0
    ...
    2012 10 21    01 09 38.8 +00 50 35   0.1102  1.1032   167.1    11.6    22.4
    ...
    2012 10 29    01 00 48.1 +01 18 14   0.05592 1.0454   158.2    20.7    21.2
    ...
    2012 11 04    00 23 48.1 +04 53 53   0.01657 1.0054   145.5    33.9    18.8
    2012 11 05    23 50 40.6 +08 06 45   0.01030 0.9991   137.6    42.0    18.0
    2012 11 06    21 49 04.8 +17 37 51   0.0049220.9929   109.6    70.2    17.2
    ...
    2012 11 12    13 36 32.7 +02 22 41   0.03683 0.9583    30.5   148.4    27.2
    ...
    2012 11 20    13 25 05.2 +00 36 17   0.09008 0.9201    39.3   137.1    27.4
    ...
    2012 12 05    13 30 25.4 -01 29 13   0.1933  0.8797    52.0   118.0    27.2
    
    A. U. Tomatic                (C) Copyright 2012 MPC           M.P.E.C. 2012-V13
    

    Read MPEC 2012-V12 Read MPEC 2012-V14


    MPEC number:

    Enter an MPEC number in one of the following forms:

    • 1997-B01 (the full form)
    • J97B01 (the packed version of the full form)
    • B01 (the abbreviated form)